Weather History for Las Vegas, NM

Change the Weather History Date:

Tuesday, October 11, 2011

  Actual Average Record
Temperature  
Mean Temperature 56 °F -  
Max Temperature 68 °F 68 °F 82 °F (1979)
Min Temperature 45 °F 38 °F 26 °F (2001)
Degree Days  
Heating Degree Days 8    
Growing Degree Days 6 (Base 50)    
Moisture  
Dew Point 24 °F    
Average Humidity 31    
Maximum Humidity 52    
Minimum Humidity 17    
Precipitation  
Precipitation 0.00 in - - ()
Sea Level Pressure  
Sea Level Pressure 29.78 in    
Wind  
Wind Speed 11 mph (WNW)    
Max Wind Speed 20 mph    
Max Gust Speed 29 mph    
Visibility 10 miles    
Events      
Averages and records for this station are not official NWS values.
T = Trace of Precipitation, MM = Missing Value Source: NWS Daily Summary

Daily Weather History Graph

Daily Weather History Graph

Search for Another Location

Airport:

Trip Planner

Search our weather history database for the weather conditions in past years. The results will help you decide how hot, cold, wet, or windy it might be!

Date:

Astronomy

Oct. 11, 2011 Rise Set
Actual Time 7:03 AM MDT 6:30 PM MDT
Civil Twilight 6:37 AM MDT 6:56 PM MDT
Nautical Twilight 6:08 AM MDT 7:25 PM MDT
Astronomical Twilight 5:38 AM MDT 7:55 PM MDT
Moon 6:05 PM MDT (10/11) 6:42 AM MDT (10/11)
Length of Visible Light 12h 18m
Length of Day
11h 27m
Full, 100% of the Moon is Illuminated
Oct 11
Full
Oct 11
Full
Oct 19
Last Quarter
Oct 26
New
Nov 2
First Quarter

Hourly Weather History & Observations

Time (MDT) Temp. Windchill Dew Point Humidity Pressure Visibility Wind Dir Wind Speed Gust Speed Precip Events Conditions
1:53 AM 45.0 °F 39.3 °F 28.0 °F 52% 29.81 in 10.0 mi SW 11.5 mph - N/A   Clear
2:53 AM 46.9 °F - 28.0 °F 48% 29.79 in 10.0 mi SW 13.8 mph - N/A   Clear
3:53 AM 50.0 °F - 28.9 °F 44% 29.76 in 10.0 mi SSW 16.1 mph - N/A   Clear
4:53 AM 50.0 °F - 28.0 °F 43% 29.77 in 10.0 mi SSW 8.1 mph - N/A   Scattered Clouds
5:53 AM 52.0 °F - 25.0 °F 35% 29.77 in 10.0 mi Calm Calm - N/A   Mostly Cloudy
6:53 AM 52.0 °F - 21.9 °F 31% 29.81 in 10.0 mi WNW 8.1 mph - N/A   Overcast
8:53 AM 55.9 °F - 25.0 °F 30% 29.83 in 10.0 mi South 9.2 mph - N/A   Clear
9:53 AM 60.1 °F - 21.0 °F 22% 29.79 in 10.0 mi Variable 4.6 mph - N/A   Clear
10:53 AM 62.1 °F - 23.0 °F 22% 29.79 in 10.0 mi WNW 6.9 mph - N/A   Clear
11:53 AM 66.0 °F - 21.0 °F 18% 29.76 in 10.0 mi NW 15.0 mph 26.5 mph N/A   Clear
12:53 PM 66.9 °F - 21.9 °F 18% 29.73 in 10.0 mi NW 15.0 mph 24.2 mph N/A   Clear
2:53 PM 68.0 °F - 21.0 °F 17% 29.68 in 10.0 mi WNW 18.4 mph 27.6 mph N/A   Clear
3:53 PM 68.0 °F - 28.0 °F 22% 29.67 in 10.0 mi WSW 18.4 mph 25.3 mph N/A   Clear
4:20 PM 68.0 °F - 23.0 °F 18% 29.94 in 10.0 mi WNW 17.3 mph 28.8 mph N/A   Clear
4:53 PM 66.9 °F - 21.9 °F 18% 29.68 in 10.0 mi WNW 19.6 mph 23.0 mph N/A   Clear
5:53 PM 63.0 °F - 23.0 °F 22% 29.71 in 10.0 mi WNW 15.0 mph - N/A   Clear
6:53 PM 55.9 °F - 21.9 °F 27% 29.76 in 10.0 mi WNW 10.4 mph - N/A   Clear
7:53 PM 55.0 °F - 23.0 °F 29% 29.80 in 10.0 mi NW 8.1 mph - N/A   Clear
8:53 PM 51.1 °F - 24.1 °F 35% 29.82 in 10.0 mi NW 4.6 mph - N/A   Clear
9:53 PM 48.9 °F - 25.0 °F 39% 29.82 in 10.0 mi NW 10.4 mph - N/A   Clear
10:53 PM 48.0 °F - 26.1 °F 42% 29.83 in 10.0 mi NW 12.7 mph - N/A   Clear
11:53 PM 46.9 °F - 28.0 °F 48% 29.82 in 10.0 mi NNW 13.8 mph - N/A   Clear